Jadwal Kapal Pelni Wilis Terbaru 2019

Jadwal Keberangkatan Kapal Pelni WILISUpdate Info Terbaru Jadwal Kapal Pelni Wilis Bulan Ini, Bagi anda yang hendak mudik atau pulang kampung maupun urusan perkerjaan di daerah Waingapu, Labuan Bajo, Bima, Makassar, Selayar, Marapokot, Ende, Kupang, dengan menggunakan jalur laut, perlu anda ketahui perjalanan pelayaran kapal pelni wilis ini meliputi daerah Waingapu, Labuan Bajo, Bima, Makassar, Selayar, Marapokot, Ende, Kupang, nah bagi anda yang akan melakuan perjalan ke daerah yang sudah saya sebutkan tadi anda bisa menggunakan jadwal kapal pelni km wilis.

Kali ini saya akan memberikan informasi terupdate mengenai harga tiket kapal wilis dan jadwal keberangkatan kapal wilis terbaru bulan ini, perlu anda ketahui ada suatu daerah yang tidak bisa di jangkau dengan pesawat terbang maupun jalur darat, di karenakan terkendala faktor alam, fasilitas penerbangan seperti landasan bandara yang belum memenuhi standart, dan ada juga yang tidak bisa di tempuh dengan jalur darat di karenakan tata letak negara Indonesia ini sangatlah luas dan banyak sekalai pulau dari sabang sampai merakue.

Jadwal Kapal Wilis & Harga Tiket Pelni Terbaru :

jadwal kapal pelni wilis terbaru bulan ini 2018 2019 2020 2021 2022 2023 2024 2025
Jadwal Kapal Wilis Terbaru
#Hargatiket.info

Nah, maka dari itu menempuh jalur laut adalah salah satu solusi bagi masyarakat setempat yang minim akan transportasi udara, nah bagi anda yang hendak berpergian tujuan rute kapal pelni wilis meliputi daerah Waingapu, Labuan Bajo, Bima, Makassar, Selayar, Marapokot, Ende, Kupang, anda bisa menggunakan kapal pelni wilis, di samping biaya sangat murah dan terjangkau banyak sekali keuntungan dengan menggunakan perjalan jalur laut ini, anda bisa membawah motor maupun mobil pribadi, perlu anda ketahui saat ini untuk pembelian tiket kapal pelni, sudah bisa di akses secara online.

Anda bisa memanfaatkan fasilitas yang satu ini, di samping itu anda tidak perlu repot untuk datang langsung ke pelabuhan hanya untuk membeli tiket, hal ini akan membuat waktu anda lebih efesien, tidak hanya itu saja anda juga bisa melihat jadwal terbaru mengenai keberangkatan kapal pelni dengan tujuan rute perjalanan yang anda kehendaki, nah untuk lebih detail dan jelasnya mengenai jadwal kapal wilis bulan ini, anda bisa melihat tabel di bawah ini sebagai berikut.

Update Terbaru  Harga Tiket Dan Jadwal Kapal Pelni AWU Terbaru 2019

Jadwal Kapal Pelni Wilis Terbaru

#Jadwal Kapal Wilis

Jadwal Kapal KM Wilis Terbaru

  • WAINGAPU [SUMBA TIMUR] – ENDE – TENAU [KUPANG] – ROTE – SABU
  • WAINGAPU [SUMBA TIMUR] – SAPE [BIMA] – LABUAN BAJO – REO – MAKASSAR – BATULICIN
BERANGKAT DARI PELABUHANTIBA DI PELABUHANWAKTU KEBERANGKATAN KAPAL PELNI WILISWAKTU TIBA KAPAL PELNI WILIS
TENAU [KUPANG]KALABAHI07-11-2018 | 14:0008-11-2018 | 05:00
KALABAHILARANTUKA [FLORES TIMUR]08-11-2018 | 07:0008-11-2018 | 20:00
LARANTUKA [FLORES TIMUR]MARAPOKOT08-11-2018 | 22:0009-11-2018 | 12:00
MARAPOKOTLABUAN BAJO09-11-2018 | 14:0010-11-2018 | 03:00
LABUAN BAJOBIMA10-11-2018 | 05:0010-11-2018 | 14:00
BIMAMAKASSAR10-11-2018 | 16:0011-11-2018 | 15:00
MAKASSARBATULICIN11-11-2018 | 19:0013-11-2018 | 01:00
BATULICINMAKASSAR14-11-2018 | 18:0016-11-2018 | 00:01
MAKASSARREO16-11-2018 | 05:0017-11-2018 | 05:00
REOLABUAN BAJO17-11-2018 | 06:0017-11-2018 | 12:00
LABUAN BAJOBIMA17-11-2018 | 14:0017-11-2018 | 23:00
BIMAWAINGAPU [SUMBA TIMUR]18-11-2018 | 01:0018-11-2018 | 22:00
WAINGAPU [SUMBA TIMUR]ENDE18-11-2018 | 23:5919-11-2018 | 11:00
ENDETENAU [KUPANG]19-11-2018 | 13:0020-11-2018 | 05:00
TENAU [KUPANG]ENDE21-11-2018 | 14:0022-11-2018 | 06:00
ENDEWAINGAPU [SUMBA TIMUR]22-11-2018 | 08:0022-11-2018 | 19:00
WAINGAPU [SUMBA TIMUR]BIMA22-11-2018 | 21:0023-11-2018 | 18:00
BIMALABUAN BAJO23-11-2018 | 20:0024-11-2018 | 05:00
LABUAN BAJOREO24-11-2018 | 07:0024-11-2018 | 13:00
REOMAKASSAR24-11-2018 | 15:0025-11-2018 | 15:00
MAKASSARBATULICIN25-11-2018 | 19:0027-11-2018 | 01:00
BERANGKAT DARI PELABUHANTIBA DI PELABUHANWAKTU KEBERANGKATAN KAPAL PELNI WILISWAKTU TIBA KAPAL PELNI WILIS
SAPE [BIMA]LABUAN BAJO07-01-2019 | 01:0007-01-2019 | 12:00
LABUAN BAJOREO07-01-2019 | 14:0007-01-2019 | 21:00
REOMAKASSAR07-01-2019 | 22:0009-01-2019 | 01:00
MAKASSARBATULICIN09-01-2019 | 04:0010-01-2019 | 13:00
BATULICINMAKASSAR10-01-2019 | 16:0012-01-2019 | 01:00
MAKASSARSAPE [BIMA]12-01-2019 | 06:0013-01-2019 | 08:00
SAPE [BIMA]LABUAN BAJO13-01-2019 | 10:0013-01-2019 | 21:00
LABUAN BAJOMARAPOKOT13-01-2019 | 23:0014-01-2019 | 13:00
MARAPOKOTLARANTUKA [FLORES TIMUR]14-01-2019 | 15:0015-01-2019 | 07:00
LARANTUKA [FLORES TIMUR]KALABAHI15-01-2019 | 09:0015-01-2019 | 23:00
KALABAHITENAU [KUPANG]16-01-2019 | 01:0016-01-2019 | 18:00
TENAU [KUPANG]KALABAHI17-01-2019 | 11:0018-01-2019 | 04:00
KALABAHILARANTUKA [FLORES TIMUR]18-01-2019 | 06:0018-01-2019 | 20:00
LARANTUKA [FLORES TIMUR]MARAPOKOT18-01-2019 | 22:0019-01-2019 | 14:00
MARAPOKOTLABUAN BAJO19-01-2019 | 16:0020-01-2019 | 07:00
LABUAN BAJOSAPE [BIMA]20-01-2019 | 09:0020-01-2019 | 20:00
SAPE [BIMA]MAKASSAR20-01-2019 | 22:0022-01-2019 | 00:01
MAKASSARBATULICIN22-01-2019 | 04:0023-01-2019 | 13:00
BATULICINMAKASSAR24-01-2019 | 18:0026-01-2019 | 03:00
MAKASSARREO26-01-2019 | 10:0027-01-2019 | 14:00
REOLABUAN BAJO27-01-2019 | 17:0028-01-2019 | 00:01
LABUAN BAJOSAPE [BIMA]28-01-2019 | 04:0028-01-2019 | 15:00
SAPE [BIMA]WANGAPU [SUMBA TIMUR]28-01-2019 | 18:0029-01-2019 | 20:00
WANGAPU [SUMBA TIMUR]ENDE29-01-2019 | 22:0030-01-2019 | 10:00
ENDETENAU [KUPANG]30-01-2019 | 12:0031-01-2019 | 06:00
TENAU [KUPANG]ENDE01-02-2019 | 13:0002-02-2019 | 07:00
ENDEWANGAPU [SUMBA TIMUR]02-02-2019 | 09:0002-02-2019 | 21:00
WANGAPU [SUMBA TIMUR]SAPE [BIMA]02-02-2019 | 23:0003-02-2019 | 23:00
SAPE [BIMA]LABUAN BAJO04-02-2019 | 01:0004-02-2019 | 11:00
LABUAN BAJOREO04-02-2019 | 13:0004-02-2019 | 20:00
REOMAKASSAR04-02-2019 | 21:0006-02-2019 | 00:01
MAKASSARBATULICIN06-02-2019 | 04:0007-02-2019 | 13:00
BATULICINMAKASSAR07-02-2019 | 16:0009-02-2019 | 01:00
MAKASSARSAPE [BIMA]09-02-2019 | 06:0010-02-2019 | 08:00
SAPE [BIMA]LABUAN BAJO10-02-2019 | 10:0010-02-2019 | 21:00
LABUAN BAJOMARAPOKOT10-02-2019 | 23:0011-02-2019 | 13:00
MARAPOKOTLARANTUKA [FLORES TIMUR]11-02-2019 | 15:0012-02-2019 | 07:00
LARANTUKA [FLORES TIMUR]KALABAHI12-02-2019 | 09:0012-02-2019 | 23:00
KALABAHITENAU [KUPANG]13-02-2019 | 01:0013-02-2019 | 18:00
TENAU [KUPANG]KALABAHI14-02-2019 | 11:0015-02-2019 | 04:00
KALABAHILARANTUKA [FLORES TIMUR]15-02-2019 | 06:0015-02-2019 | 20:00
LARANTUKA [FLORES TIMUR]MARAPOKOT15-02-2019 | 22:0016-02-2019 | 14:00
MARAPOKOTLABUAN BAJO16-02-2019 | 16:0017-02-2019 | 07:00
LABUAN BAJOSAPE [BIMA]17-02-2019 | 09:0017-02-2019 | 20:00
SAPE [BIMA]MAKASSAR17-02-2019 | 22:0019-02-2019 | 00:01
MAKASSARBATULICIN19-02-2019 | 04:0020-02-2019 | 13:00
BATULICINMAKASSAR21-02-2019 | 18:0023-02-2019 | 03:00
MAKASSARREO23-02-2019 | 10:0024-02-2019 | 14:00
REOLABUAN BAJO24-02-2019 | 17:0025-02-2019 | 00:01
LABUAN BAJOSAPE [BIMA]25-02-2019 | 04:0025-02-2019 | 15:00
SAPE [BIMA]WANGAPU [SUMBA TIMUR]25-02-2019 | 18:0026-02-2019 | 20:00
WANGAPU [SUMBA TIMUR]ENDE26-02-2019 | 22:0027-02-2019 | 10:00
ENDETENAU [KUPANG]27-02-2019 | 12:0028-02-2019 | 06:00
TENAU [KUPANG]ENDE01-03-2019 | 13:0002-03-2019 | 07:00
ENDEWANGAPU [SUMBA TIMUR]02-03-2019 | 09:0002-03-2019 | 21:00
WANGAPU [SUMBA TIMUR]SAPE [BIMA]02-03-2019 | 23:0003-03-2019 | 23:00
SAPE [BIMA]LABUAN BAJO04-03-2019 | 01:0004-03-2019 | 11:00
LABUAN BAJOREO04-03-2019 | 13:0004-03-2019 | 20:00
REOMAKASSAR04-03-2019 | 21:0006-03-2019 | 00:01
MAKASSARBATULICIN06-03-2019 | 04:0007-03-2019 | 13:00
Update Terbaru  Harga Tiket Dan Jadwal Kapal Pelni Tatamailau Terbaru 2019
Jadwal Kapal KM Wilis Ini Dapat Berubah Sewaktu-waktu, Untuk Pengecekan Jadwal Kapal Pelni KM Wilis Anda Bisa Cek Di SINI [ Jadwal Pelni ]
NB : Untuk Info Tiket Dan Update Jadwal Kapal Pelni Terbaru Anda Bisa Klik Link Di Atas (Info Tiket & Jadwal Kapal)

Nah, demikianlah informasi mengenai jadwal kapal wilis terbaru dan terupdate, semoga dengan adanya informasi ini dapat membantu anda dalam menentukan perjalan anda menuju tempat yang anda tuju.

Jadwal Kapal Wilis Januari 2019 | Jadwal KM Wilis Februari 2019 | Jadwal Kapal Motor Wilis Maret 2019 | Jadwal Kapal Pelni Wilis April 2019 | Jadwal Kapal Laut Wilis Mei 2019 | Jadwal Keberangkatan Kapal Wilis Juni 2019 | Jadwal Keberangkatan KM Wilis Juli 2019 | Jadwal Keberangkatan Kapal Motor Wilis Agustus 2019 | Jadwal Keberangkatan Kapal Pelni Wilis September 2019 | Jadwal Keberangkatan Kapal Laut Wilis Oktober 2019 | Jadwal Terbaru Kapal Wilis November Tahun 2019 | Jadwal Terbaru Kapal Pelni Wilis Desember Tahun 2019bisa memperoleh informasi yang anda cari tentang “Jadwal Terbaru Kapal Pelni.

Pencarian Terkait :

  • Jadwal Kapal Pelni Wilis Januari 2019
  • Jadwal Kapal Pelni Wilis Februari 2019
  • Jadwal Kapal Pelni Wilis Maret 2019
  • Jadwal Kapal Pelni Wilis April 2019
  • Jadwal Kapal Pelni Wilis Mei 2019
  • Jadwal Kapal Pelni Wilis Juni 2019
  • Jadwal Kapal Pelni Wilis Juli 2019
  • Jadwal Kapal Pelni Wilis Agustus 2019
  • Jadwal Kapal Pelni Wilis September 2019
  • Jadwal Kapal Pelni Wilis Oktober 2019
  • Jadwal Kapal Pelni Wilis November 2019
  • Jadwal Kapal Pelni Wilis Desember 2019